TVS4455 NCRG-YSSY

Flight info

Callsign TVS4455
Flight time N/A
Altitude 36000
Route TOKET1P BIXIT G594 OVTOS DCT ODUTI/N0452F380 G595 SARAP DCT MARLN
Aircraft A320/M-SDE3FGHIRWY/LB1

Departure

Time 2026-04-24 14:42
Airport Rarotonga International Airport (NCRG)

Arrival

Time N/A
Airport Sydney Kingsford Smith International Airport (YSSY)
Time Latitude Longitude Altitude Speed Heading
2026-04-24 14:11 -21.20070 -159.79852 10 ft 0 kts 89°
2026-04-24 14:37 -21.20070 -159.79851 10 ft 1 kts 89°
2026-04-24 14:38 -21.20087 -159.79836 10 ft 5 kts 159°
2026-04-24 14:38 -21.20126 -159.79830 10 ft 5 kts 176°
2026-04-24 14:38 -21.20154 -159.79830 10 ft 0 kts 179°
2026-04-24 14:39 -21.20167 -159.79830 10 ft 7 kts 182°
2026-04-24 14:39 -21.20230 -159.79830 11 ft 8 kts 167°
2026-04-24 14:39 -21.20256 -159.79774 11 ft 13 kts 94°
2026-04-24 14:39 -21.20258 -159.79663 10 ft 16 kts 90°
2026-04-24 14:40 -21.20288 -159.79553 12 ft 13 kts 127°
2026-04-24 14:40 -21.20314 -159.79498 10 ft 8 kts 92°
2026-04-24 14:40 -21.20269 -159.79461 10 ft 7 kts 346°
2026-04-24 14:40 -21.20257 -159.79499 10 ft 4 kts 269°
2026-04-24 14:41 -21.20257 -159.79505 10 ft 0 kts 269°
2026-04-24 14:41 -21.20258 -159.79595 10 ft 45 kts 270°
2026-04-24 14:41 -21.20258 -159.80213 10 ft 117 kts 270°
2026-04-24 14:41 -21.20260 -159.81298 54 ft 169 kts 270°
2026-04-24 14:42 -21.20255 -159.82549 717 ft 167 kts 268°
2026-04-24 14:42 -21.20257 -159.83802 1392 ft 168 kts 267°
2026-04-24 14:42 -21.20258 -159.85069 1915 ft 177 kts 266°
2026-04-24 14:42 -21.20263 -159.86465 2243 ft 198 kts 266°
2026-04-24 14:43 -21.20353 -159.88017 2528 ft 218 kts 250°
2026-04-24 14:43 -21.21149 -159.89437 2866 ft 233 kts 226°
2026-04-24 14:43 -21.22296 -159.90727 3345 ft 249 kts 221°
2026-04-24 14:43 -21.23591 -159.92048 3942 ft 263 kts 221°
2026-04-24 14:44 -21.24938 -159.93417 4761 ft 269 kts 222°
2026-04-24 14:44 -21.26292 -159.94828 5598 ft 273 kts 223°
2026-04-24 14:44 -21.27644 -159.96278 6469 ft 276 kts 223°
2026-04-24 14:44 -21.28990 -159.97755 7302 ft 278 kts 224°
2026-04-24 14:45 -21.30333 -159.99249 8146 ft 279 kts 224°
2026-04-24 14:45 -21.31659 -160.00733 8980 ft 280 kts 225°
2026-04-24 14:45 -21.33013 -160.02254 9776 ft 283 kts 225°
2026-04-24 14:45 -21.34387 -160.03799 10372 ft 294 kts 225°
2026-04-24 14:46 -21.35853 -160.05445 10603 ft 315 kts 225°
2026-04-24 14:46 -21.37389 -160.07171 11135 ft 324 kts 226°
2026-04-24 14:46 -21.38955 -160.08933 11792 ft 328 kts 226°
2026-04-24 14:46 -21.40539 -160.10716 12487 ft 331 kts 226°
2026-04-24 14:47 -21.42137 -160.12517 13192 ft 334 kts 226°
2026-04-24 14:47 -21.43744 -160.14330 13878 ft 336 kts 226°
2026-04-24 14:47 -21.45364 -160.16157 14470 ft 339 kts 226°
2026-04-24 14:47 -21.46997 -160.17997 15040 ft 342 kts 226°
2026-04-24 14:48 -21.48648 -160.19858 15591 ft 346 kts 226°
2026-04-24 14:48 -21.50314 -160.21735 16170 ft 349 kts 227°
2026-04-24 14:48 -21.52001 -160.23629 16728 ft 352 kts 226°
2026-04-24 14:48 -21.53717 -160.25524 17275 ft 356 kts 226°
2026-04-24 14:49 -21.55459 -160.27429 17820 ft 359 kts 226°
2026-04-24 14:49 -21.57226 -160.29349 18348 ft 363 kts 226°
2026-04-24 14:49 -21.59009 -160.31284 18827 ft 366 kts 226°
2026-04-24 14:49 -21.60797 -160.33236 19333 ft 368 kts 226°
2026-04-24 14:50 -21.62592 -160.35207 19849 ft 370 kts 227°
2026-04-24 14:50 -21.64392 -160.37189 20364 ft 372 kts 227°
2026-04-24 14:50 -21.66177 -160.39155 20876 ft 374 kts 227°
2026-04-24 14:50 -21.68001 -160.41161 21391 ft 376 kts 227°
2026-04-24 14:51 -21.69833 -160.43171 21905 ft 378 kts 227°
2026-04-24 14:51 -21.71683 -160.45200 22427 ft 380 kts 227°
2026-04-24 14:51 -21.73534 -160.47235 22944 ft 382 kts 227°
2026-04-24 14:51 -21.75396 -160.49287 23449 ft 384 kts 227°
2026-04-24 14:52 -21.77267 -160.51351 23880 ft 386 kts 227°
2026-04-24 14:52 -21.79147 -160.53424 24285 ft 388 kts 227°
2026-04-24 14:52 -21.81040 -160.55511 24691 ft 390 kts 228°
2026-04-24 14:52 -21.82941 -160.57607 25088 ft 392 kts 228°
2026-04-24 14:53 -21.84850 -160.59714 25486 ft 394 kts 227°
2026-04-24 14:53 -21.86768 -160.61832 25871 ft 396 kts 227°
2026-04-24 14:53 -21.88695 -160.63962 26258 ft 398 kts 227°
2026-04-24 14:53 -21.90636 -160.66104 26636 ft 400 kts 227°
2026-04-24 14:54 -21.92582 -160.68251 27009 ft 402 kts 227°
2026-04-24 14:54 -21.94538 -160.70409 27390 ft 403 kts 227°
2026-04-24 14:54 -21.96505 -160.72582 27770 ft 405 kts 227°
2026-04-24 14:54 -21.98428 -160.74752 28130 ft 406 kts 229°
2026-04-24 14:55 -21.99710 -160.76280 28376 ft 407 kts 230°
2026-04-24 14:55 -22.02167 -160.79358 28844 ft 410 kts 231°
2026-04-24 14:55 -22.03997 -160.81716 29178 ft 412 kts 232°
2026-04-24 14:55 -22.05834 -160.84090 29512 ft 413 kts 232°
2026-04-24 14:56 -22.07689 -160.86471 29835 ft 415 kts 231°
2026-04-24 14:56 -22.09565 -160.88857 30133 ft 418 kts 231°
2026-04-24 14:56 -22.11458 -160.91247 30391 ft 419 kts 231°
2026-04-24 14:56 -22.13359 -160.93639 30671 ft 421 kts 231°
2026-04-24 14:57 -22.15271 -160.96036 30950 ft 422 kts 231°
2026-04-24 14:57 -22.17185 -160.98437 31248 ft 422 kts 231°
2026-04-24 14:57 -22.19088 -161.00829 31659 ft 419 kts 231°
2026-04-24 14:57 -22.20978 -161.03208 32071 ft 416 kts 231°
2026-04-24 14:58 -22.22854 -161.05576 32489 ft 414 kts 231°
2026-04-24 14:58 -22.24692 -161.07900 32901 ft 411 kts 231°
2026-04-24 14:58 -22.26542 -161.10238 33331 ft 409 kts 231°
2026-04-24 14:58 -22.28384 -161.12569 33734 ft 406 kts 231°
2026-04-24 14:59 -22.30208 -161.14881 34141 ft 404 kts 231°
2026-04-24 14:59 -22.32022 -161.17178 34536 ft 400 kts 231°
2026-04-24 14:59 -22.33822 -161.19452 34910 ft 397 kts 231°
2026-04-24 14:59 -22.35611 -161.21712 35245 ft 395 kts 230°
2026-04-24 15:00 -22.37392 -161.23966 35559 ft 393 kts 230°
2026-04-24 15:00 -22.39164 -161.26212 35862 ft 392 kts 230°
2026-04-24 15:00 -22.40928 -161.28452 35977 ft 390 kts 230°
2026-04-24 15:01 -22.44416 -161.32883 36008 ft 385 kts 230°
2026-04-24 15:01 -22.47886 -161.37282 35994 ft 384 kts 230°
2026-04-24 15:02 -22.51352 -161.41686 35993 ft 384 kts 230°
2026-04-24 15:02 -22.54812 -161.46086 36009 ft 384 kts 230°
2026-04-24 15:03 -22.58249 -161.50459 36004 ft 384 kts 230°
2026-04-24 15:03 -22.61709 -161.54867 36003 ft 384 kts 230°
2026-04-24 15:04 -22.65165 -161.59286 36007 ft 384 kts 231°
2026-04-24 15:04 -22.68619 -161.63694 36034 ft 383 kts 231°
2026-04-24 15:05 -22.72067 -161.68090 36018 ft 382 kts 231°
2026-04-24 15:05 -22.75503 -161.72485 36019 ft 382 kts 231°
2026-04-24 15:06 -22.78910 -161.76847 36021 ft 381 kts 231°
2026-04-24 15:06 -22.82333 -161.81233 36014 ft 381 kts 231°
2026-04-24 15:07 -22.85768 -161.85621 36026 ft 381 kts 231°
2026-04-24 15:07 -22.89191 -161.90007 36014 ft 381 kts 231°
2026-04-24 15:08 -22.92604 -161.94398 36006 ft 381 kts 231°
2026-04-24 15:08 -22.96022 -161.98788 36020 ft 381 kts 231°
2026-04-24 15:09 -22.99441 -162.03185 36014 ft 381 kts 231°
2026-04-24 15:09 -23.02859 -162.07581 36030 ft 381 kts 231°
2026-04-24 15:10 -23.06272 -162.11975 36039 ft 380 kts 231°
2026-04-24 15:10 -23.09648 -162.16335 36027 ft 379 kts 231°
2026-04-24 15:11 -23.13043 -162.20716 36027 ft 379 kts 231°
2026-04-24 15:11 -23.16435 -162.25102 36025 ft 379 kts 231°
2026-04-24 15:12 -23.19822 -162.29483 36024 ft 379 kts 231°
2026-04-24 15:12 -23.24907 -162.36054 36025 ft 378 kts 231°
2026-04-24 15:13 -23.28274 -162.40413 36022 ft 378 kts 231°
2026-04-24 15:13 -23.31657 -162.44792 36021 ft 378 kts 231°
2026-04-24 15:14 -23.35034 -162.49186 36022 ft 378 kts 231°
2026-04-24 15:14 -23.38412 -162.53577 36020 ft 378 kts 231°
2026-04-24 15:15 -23.41787 -162.57964 36042 ft 377 kts 231°
2026-04-24 15:15 -23.45158 -162.62349 36036 ft 377 kts 232°
2026-04-24 15:16 -23.48514 -162.66726 36033 ft 376 kts 232°
2026-04-24 15:16 -23.51848 -162.71063 36034 ft 376 kts 232°
2026-04-24 15:17 -23.55200 -162.75442 36034 ft 376 kts 232°
2026-04-24 15:17 -23.58544 -162.79812 36032 ft 375 kts 232°
2026-04-24 15:18 -23.61898 -162.84190 36031 ft 375 kts 232°
2026-04-24 15:18 -23.65242 -162.88561 36030 ft 375 kts 232°
2026-04-24 15:19 -23.68586 -162.92934 36029 ft 375 kts 232°
2026-04-24 15:19 -23.71924 -162.97315 36028 ft 375 kts 232°
2026-04-24 15:20 -23.75265 -163.01689 36028 ft 375 kts 232°
2026-04-24 15:20 -23.78582 -163.06041 36028 ft 375 kts 232°
2026-04-24 15:21 -23.81918 -163.10428 36031 ft 375 kts 232°
2026-04-24 15:21 -23.85246 -163.14812 36031 ft 375 kts 232°
2026-04-24 15:22 -23.88579 -163.19195 36029 ft 375 kts 232°
2026-04-24 15:23 -23.93579 -163.25770 36032 ft 375 kts 232°
2026-04-24 15:23 -23.98565 -163.32360 36028 ft 375 kts 232°
2026-04-24 15:25 -24.06323 -163.42614 36029 ft 375 kts 232°
2026-04-24 15:26 -24.15169 -163.54327 36046 ft 374 kts 232°
2026-04-24 15:27 -24.25094 -163.67506 36044 ft 373 kts 232°
2026-04-24 15:29 -24.34964 -163.80657 36043 ft 373 kts 232°
2026-04-24 15:31 -24.45935 -163.95309 36043 ft 373 kts 232°
2026-04-24 15:33 -24.59057 -164.12880 36046 ft 371 kts 233°
2026-04-24 15:34 -24.67213 -164.23825 36045 ft 371 kts 233°
2026-04-24 15:35 -24.75373 -164.34820 36047 ft 371 kts 233°
2026-04-24 15:36 -24.78636 -164.39224 36039 ft 371 kts 233°
2026-04-24 15:36 -24.83534 -164.45852 36062 ft 372 kts 233°
2026-04-24 15:37 -24.86794 -164.50258 36062 ft 371 kts 233°
2026-04-24 15:37 -24.90049 -164.54660 36060 ft 370 kts 233°
2026-04-24 15:38 -24.93308 -164.59061 36059 ft 370 kts 233°
2026-04-24 15:38 -24.96554 -164.63459 36056 ft 370 kts 234°
2026-04-24 15:39 -24.99795 -164.67868 36058 ft 370 kts 234°
2026-04-24 15:39 -25.03013 -164.72246 36057 ft 370 kts 233°
2026-04-24 15:40 -25.06252 -164.76653 36057 ft 370 kts 233°
2026-04-24 15:40 -25.09489 -164.81059 36056 ft 370 kts 233°
2026-04-24 15:41 -25.12729 -164.85463 36055 ft 370 kts 233°
2026-04-24 15:41 -25.15969 -164.89877 36054 ft 370 kts 234°
2026-04-24 15:42 -25.19198 -164.94290 36074 ft 369 kts 234°
2026-04-24 15:42 -25.22407 -164.98705 36071 ft 367 kts 237°